Home > Weather > Pointe-à-Pitre > Past weeks

Flag for Guadeloupe Weather for the Past 2 Weeks in Pointe-à-Pitre, Guadeloupe

Now
73 °F

Clear.


Feels Like: 73 °F
Forecast: 71 / 83 °F
Wind: 7 mph from East

Location: Le Raizet - Guadeloupe

Current Time: Feb 10, 2016 at 5:24:28 AM

Latest Report: Feb 10, 2016 at 5:00 AM


Visibility: N/A

Pressure: 30.07 "Hg

Humidity: 83%

Dew point: 68 °F

Location of Pointe-à-PitreLocation

Historic Weather in Pointe-à-Pitre — Graph

°F

Pointe-à-Pitre Temperature Yesterday

Maximum temperature yesterday: 82 °F (at 11:00 AM)
Minimum temperature yesterday: 72 °F (at 5:00 AM)
Average temperature yesterday: 78 °F

High & Low Weather Summary for the Past Weeks

 TemperatureHumidityPressure
High86 °F (Feb 3, 11:00 AM)100% (Feb 2, 5:00 AM)30.15 "Hg (Feb 2, 5:00 AM)
Low66 °F (Feb 5, 3:00 AM)48% (Jan 27, 11:30 AM)29.86 "Hg (Feb 4, 2:30 AM)
Average77 °F76%30.02 "Hg
* Reported Jan 26 4:00 AM — Feb 10 4:00 AM, Pointe-à-Pitre, Weather by CustomWeather, © 2016

Note: Actual official high and low records may vary slightly from our data, if they occured in-between our weather recording intervals... More about our weather records

Advertising

Pointe-à-Pitre Weather History for the Previous 24 Hours

 ConditionsComfort  
Time TempWeatherWind HumidityBarometerVisibility
4:00 AM
Wed, Feb 10
73 °FPassing clouds.7 mph83%30.04 "HgN/A
3:30 AM73 °FPassing clouds.7 mph83%30.04 "HgN/A
3:00 AM73 °FClear.8 mph83%30.04 "HgN/A
2:30 AM73 °FClear.6 mph89%30.04 "HgN/A
2:00 AM73 °FClear.6 mph89%30.07 "HgN/A
1:30 AM73 °FClear.6 mph89%30.07 "HgN/A
1:00 AM75 °FClear.8 mph83%30.07 "HgN/A
12:30 AM73 °FClear.6 mph94%30.07 "HgN/A
12:00 AM75 °FPassing clouds.6 mph89%30.09 "HgN/A
11:30 PM
Tue, Feb 9
73 °FClear.5 mph94%30.09 "HgN/A
11:00 PM75 °FPartly cloudy.9 mph89%30.09 "HgN/A
10:30 PM75 °FClear.7 mph89%30.09 "HgN/A
10:00 PM75 °FPassing clouds.8 mph89%30.09 "HgN/A
9:30 PM75 °FPartly cloudy.7 mph89%30.09 "HgN/A
9:00 PM75 °FLight rain. Passing clouds.8 mph89%30.09 "HgN/A
8:30 PM77 °FClear.6 mph79%30.09 "HgN/A
8:00 PM77 °FClear.6 mph79%30.09 "HgN/A
7:30 PM77 °FPassing clouds.5 mph79%30.07 "HgN/A
7:00 PM77 °FPassing clouds.6 mph79%30.07 "HgN/A
6:00 PM79 °FBroken clouds.9 mph79%30.04 "HgN/A
5:30 PM79 °FPartly sunny.12 mph74%30.04 "HgN/A
5:00 PM82 °FScattered clouds.12 mph66%30.04 "HgN/A
4:30 PM81 °FScattered clouds.15 mph70%30.04 "HgN/A
4:00 PM82 °FPartly sunny.15 mph66%30.04 "HgN/A
3:30 PM82 °FPartly sunny.16 mph62%30.04 "HgN/A
3:00 PM82 °FPartly sunny.17 mph66%30.04 "HgN/A
2:30 PM82 °FBroken clouds.13 mph70%30.04 "HgN/A
2:00 PM82 °FPartly sunny.16 mph74%30.04 "HgN/A
1:30 PM81 °FPartly sunny.14 mph79%30.07 "HgN/A
1:00 PM82 °FPartly sunny.15 mph66%30.07 "HgN/A
12:30 PM82 °FPartly sunny.20 mph66%30.07 "HgN/A
12:00 PM82 °FPartly sunny.18 mph66%30.09 "HgN/A
11:30 AM82 °FMostly cloudy.18 mph74%30.09 "HgN/A
11:00 AM82 °FPartly sunny.18 mph70%30.09 "HgN/A
10:30 AM81 °FPartly sunny.17 mph74%30.09 "HgN/A
10:00 AM81 °FBroken clouds.14 mph74%30.09 "HgN/A
9:30 AM77 °FLight rain. Partly sunny.9 mph89%30.12 "Hg6 mi
9:00 AM75 °FLight rain. Partly sunny.17 mph89%30.09 "HgN/A
8:30 AM79 °FPartly sunny.9 mph79%30.09 "HgN/A
8:00 AM79 °FPassing clouds.7 mph79%30.07 "HgN/A
7:30 AM77 °FBroken clouds.5 mph83%30.07 "HgN/A
6:30 AM73 °FPassing clouds.6 mph94%30.04 "HgN/A
6:00 AM72 °FClear.5 mph94%30.04 "HgN/A
5:30 AM72 °FClear.2 mph94%30.04 "HgN/A
5:00 AM72 °FClear.No wind94%30.01 "HgN/A
Weather by CustomWeather, © 2016

See weather overviewHow to use our weather pages